owner,sensor,date,latitude,longitude,vertical_datum,wind_speed,wind_to_direction,wind_speed_of_gust,qcFlag 
TABS,ioos:station:wmo:42044:1,2003-03-01T00:09:00Z,26.1914,-97.0507,0.0,3.535095473,31.93637753,8.01,'11111222,11111222,11111222' 
TABS,ioos:station:wmo:42044:1,2003-03-01T00:39:00Z,26.1914,-97.0507,0.0,2.633191979,22.08398744,7.07,'11111222,11111222,11111222' 
TABS,ioos:station:wmo:42044:1,2003-03-01T01:09:00Z,26.1914,-97.0507,0.0,2.902705634,54.39314705,6.42,'11111222,11111222,11111222' 
TABS,ioos:station:wmo:42044:1,2003-03-01T01:39:00Z,26.1914,-97.0507,0.0,1.939819579,39.35145015,4.79,'11111222,11111222,11111222' 
TABS,ioos:station:wmo:42044:1,2003-03-01T02:09:00Z,26.1914,-97.0507,0.0,3.162910052,29.96928894,5.79,'11111222,11111222,11111222' 
TABS,ioos:station:wmo:42044:1,2003-03-01T02:39:00Z,26.1914,-97.0507,0.0,2.269911893,45.53514205,7.07,'11111222,11111222,11111222' 
TABS,ioos:station:wmo:42044:1,2003-03-01T03:09:00Z,26.1914,-97.0507,0.0,2.323811524,58.90904134,5.96,'11111222,11111222,11111222' 
TABS,ioos:station:wmo:42044:1,2003-03-01T07:09:00Z,26.1914,-97.0507,0.0,1.175159564,95.37140305,5.3,'11111222,11111222,11111222' 
TABS,ioos:station:wmo:42044:1,2003-03-01T07:39:00Z,26.1914,-97.0507,0.0,0.838152731,17.3537736,5.49,'11111222,11111222,11111222' 
TABS,ioos:station:wmo:42044:1,2003-03-01T08:09:00Z,26.1914,-97.0507,0.0,0.500899191,26.05322393,4.65,'11111222,11111222,11111222' 
TABS,ioos:station:wmo:42044:1,2003-03-01T08:39:00Z,26.1914,-97.0507,0.0,1.312097557,37.56829372,5.29,'11111222,11111222,11111222' 
TABS,ioos:station:wmo:42044:1,2003-03-01T09:09:00Z,26.1914,-97.0507,0.0,2.1362116,46.51709489,6.49,'11111222,11111222,11111222' 
TABS,ioos:station:wmo:42044:1,2003-03-01T09:39:00Z,26.1914,-97.0507,0.0,2.411327435,45.50373857,6.16,'11111222,11111222,11111222' 
TABS,ioos:station:wmo:42044:1,2003-03-01T10:09:00Z,26.1914,-97.0507,0.0,1.314838393,26.17501831,5.0,'11111222,11111222,11111222' 
TABS,ioos:station:wmo:42044:1,2003-03-01T10:39:00Z,26.1914,-97.0507,0.0,1.561569723,55.69900267,5.8,'11111222,11111222,11111222' 
TABS,ioos:station:wmo:42044:1,2003-03-01T11:09:00Z,26.1914,-97.0507,0.0,1.743473544,348.754333,6.59,'11111222,11111222,11111222' 
TABS,ioos:station:wmo:42044:1,2003-03-01T11:39:00Z,26.1914,-97.0507,0.0,1.20420098,335.9890466,6.88,'11111222,11111222,11111222' 
TABS,ioos:station:wmo:42044:1,2003-03-01T12:09:00Z,26.1914,-97.0507,0.0,1.748656627,333.8744004,4.77,'11111222,11111222,11111222' 
TABS,ioos:station:wmo:42044:1,2003-03-01T12:39:00Z,26.1914,-97.0507,0.0,2.204835595,351.3919473,6.79,'11111222,11111222,11111222' 
TABS,ioos:station:wmo:42044:1,2003-03-01T13:09:00Z,26.1914,-97.0507,0.0,0.698140387,38.01864323,6.08,'11111222,11111222,11111222' 
TABS,ioos:station:wmo:42044:1,2003-03-01T13:39:00Z,26.1914,-97.0507,0.0,1.834802442,61.33934236,5.32,'11111222,11111222,11111222' 
TABS,ioos:station:wmo:42044:1,2003-03-01T14:09:00Z,26.1914,-97.0507,0.0,2.585362644,62.34432008,5.96,'11111222,11111222,11111222' 
TABS,ioos:station:wmo:42044:1,2003-03-01T14:39:00Z,26.1914,-97.0507,0.0,3.142817208,73.92901165,6.69,'11111222,11111222,11111222' 
TABS,ioos:station:wmo:42044:1,2003-03-01T15:09:00Z,26.1914,-97.0507,0.0,1.618950277,83.97206288,6.7,'11111222,11111222,11111222' 
TABS,ioos:station:wmo:42044:1,2003-03-01T15:39:00Z,26.1914,-97.0507,0.0,2.312249986,82.04471124,6.81,'11111222,11111222,11111222' 
TABS,ioos:station:wmo:42044:1,2003-03-01T16:09:00Z,26.1914,-97.0507,0.0,1.711870322,87.32103409,5.31,'11111222,11111222,11111222' 
TABS,ioos:station:wmo:42044:1,2003-03-01T16:39:00Z,26.1914,-97.0507,0.0,1.04938077,352.3330032,4.39,'11111222,11111222,11111222' 
TABS,ioos:station:wmo:42044:1,2003-03-01T17:09:00Z,26.1914,-97.0507,0.0,3.233032632,301.7235288,6.68,'11111222,11111222,11111222' 
TABS,ioos:station:wmo:42044:1,2003-03-01T17:39:00Z,26.1914,-97.0507,0.0,1.500533239,358.4722677,5.56,'11111222,11111222,11111222' 
TABS,ioos:station:wmo:42044:1,2003-03-01T18:09:00Z,26.1914,-97.0507,0.0,2.3,306.8698114,5.05,'11111222,11111222,11111222' 
TABS,ioos:station:wmo:42044:1,2003-03-01T18:39:00Z,26.1914,-97.0507,0.0,1.927744796,297.495463,4.28,'11111222,11111222,11111222' 
TABS,ioos:station:wmo:42044:1,2003-03-01T19:09:00Z,26.1914,-97.0507,0.0,1.846212339,322.2609884,4.34,'11111222,11111222,11111222' 
TABS,ioos:station:wmo:42044:1,2003-03-01T19:39:00Z,26.1914,-97.0507,0.0,2.149813945,327.3447063,5.34,'11111222,11111222,11111222' 
TABS,ioos:station:wmo:42044:1,2003-03-01T20:09:00Z,26.1914,-97.0507,0.0,0.981835017,266.4964765,4.41,'11111222,11111222,11111222' 
TABS,ioos:station:wmo:42044:1,2003-03-01T20:39:00Z,26.1914,-97.0507,0.0,1.665893154,265.1792452,4.29,'11111222,11111222,11111222' 
TABS,ioos:station:wmo:42044:1,2003-03-01T21:09:00Z,26.1914,-97.0507,0.0,2.486201923,289.7467904,4.82,'11111222,11111222,11111222' 
TABS,ioos:station:wmo:42044:1,2003-03-01T21:39:00Z,26.1914,-97.0507,0.0,1.377134707,264.1652246,4.34,'11111222,11111222,11111222' 
TABS,ioos:station:wmo:42044:1,2003-03-01T22:09:00Z,26.1914,-97.0507,0.0,1.869866305,302.3301101,4.16,'11111222,11111222,11111222' 
TABS,ioos:station:wmo:42044:1,2003-03-01T22:39:00Z,26.1914,-97.0507,0.0,0.979846927,284.1780313,4.58,'11111222,11111222,11111222' 
TABS,ioos:station:wmo:42044:1,2003-03-01T23:09:00Z,26.1914,-97.0507,0.0,0.206155281,284.0362106,3.54,'11111222,11111222,11111222' 
TABS,ioos:station:wmo:42044:1,2003-03-01T23:39:00Z,26.1914,-97.0507,0.0,1.126055061,326.5920431,3.51,'11111222,11111222,11111222' 
TABS,ioos:station:wmo:42044:1,2003-03-02T00:09:00Z,26.1914,-97.0507,0.0,0.94260278,311.1286476,3.74,'11111222,11111222,11111222' 
TABS,ioos:station:wmo:42044:1,2003-03-02T00:39:00Z,26.1914,-97.0507,0.0,0.331360831,354.8053728,5.27,'11111222,11111222,11111222' 
TABS,ioos:station:wmo:42044:1,2003-03-02T01:09:00Z,26.1914,-97.0507,0.0,1.282263623,321.9681352,4.05,'11111222,11111222,11111222' 
TABS,ioos:station:wmo:42044:1,2003-03-02T01:39:00Z,26.1914,-97.0507,0.0,0.555787729,8.275663016,2.95,'11111222,11111222,11111222' 
TABS,ioos:station:wmo:42044:1,2003-03-02T02:09:00Z,26.1914,-97.0507,0.0,1.02396289,275.0424393,3.06,'11111222,11111222,11111222' 
TABS,ioos:station:wmo:42044:1,2003-03-02T02:39:00Z,26.1914,-97.0507,0.0,0.612943717,275.6175675,3.25,'11111222,11111222,11111222' 
TABS,ioos:station:wmo:42044:1,2003-03-02T03:09:00Z,26.1914,-97.0507,0.0,1.01,258.5788404,3.76,'11111222,11111222,11111222' 
TABS,ioos:station:wmo:42044:1,2003-03-02T03:39:00Z,26.1914,-97.0507,0.0,2.278530228,247.825081,4.06,'11111222,11111222,11111222' 
TABS,ioos:station:wmo:42044:1,2003-03-02T04:09:00Z,26.1914,-97.0507,0.0,3.120144227,270.5509027,5.28,'11111222,11111222,11111222' 
TABS,ioos:station:wmo:42044:1,2003-03-02T04:39:00Z,26.1914,-97.0507,0.0,1.998424379,281.2536787,4.13,'11111222,11111222,11111222' 
TABS,ioos:station:wmo:42044:1,2003-03-02T05:09:00Z,26.1914,-97.0507,0.0,2.6759858,298.576217,4.09,'11111222,11111222,11111222' 
TABS,ioos:station:wmo:42044:1,2003-03-02T05:39:00Z,26.1914,-97.0507,0.0,3.006010645,322.9774951,4.71,'11111222,11111222,11111222' 
TABS,ioos:station:wmo:42044:1,2003-03-02T06:09:00Z,26.1914,-97.0507,0.0,3.507948118,311.1858289,5.94,'11111222,11111222,11111222' 
TABS,ioos:station:wmo:42044:1,2003-03-02T06:39:00Z,26.1914,-97.0507,0.0,2.132627487,311.3880182,4.11,'11111222,11111222,11111222' 
TABS,ioos:station:wmo:42044:1,2003-03-02T07:09:00Z,26.1914,-97.0507,0.0,2.275543891,293.2977208,4.74,'11111222,11111222,11111222' 
TABS,ioos:station:wmo:42044:1,2003-03-02T07:39:00Z,26.1914,-97.0507,0.0,2.882516262,318.2342921,4.6,'11111222,11111222,11111222' 
TABS,ioos:station:wmo:42044:1,2003-03-02T08:09:00Z,26.1914,-97.0507,0.0,1.998099097,311.3476805,3.84,'11111222,11111222,11111222' 
TABS,ioos:station:wmo:42044:1,2003-03-02T08:39:00Z,26.1914,-97.0507,0.0,2.024277649,309.5880383,3.68,'11111222,11111222,11111222' 
TABS,ioos:station:wmo:42044:1,2003-03-02T09:09:00Z,26.1914,-97.0507,0.0,1.7328012,299.3756967,4.33,'11111222,11111222,11111222' 
TABS,ioos:station:wmo:42044:1,2003-03-02T09:39:00Z,26.1914,-97.0507,0.0,1.236284757,279.3099184,3.58,'11111222,11111222,11111222' 
TABS,ioos:station:wmo:42044:1,2003-03-02T10:09:00Z,26.1914,-97.0507,0.0,0.850411665,318.8139607,3.47,'11111222,11111222,11111222' 
TABS,ioos:station:wmo:42044:1,2003-03-02T10:39:00Z,26.1914,-97.0507,0.0,1.04019229,307.971515,3.36,'11111222,11111222,11111222' 
TABS,ioos:station:wmo:42044:1,2003-03-02T11:09:00Z,26.1914,-97.0507,0.0,0.745184541,319.8989758,4.73,'11111222,11111222,11111222' 
TABS,ioos:station:wmo:42044:1,2003-03-02T11:39:00Z,26.1914,-97.0507,0.0,1.697056275,8.129872884,4.63,'11111222,11111222,11111222' 
TABS,ioos:station:wmo:42044:1,2003-03-02T12:09:00Z,26.1914,-97.0507,0.0,2.299412969,313.0613975,4.26,'11111222,11111222,11111222' 
TABS,ioos:station:wmo:42044:1,2003-03-02T12:39:00Z,26.1914,-97.0507,0.0,1.759602228,343.8307957,4.51,'11111222,11111222,11111222' 
TABS,ioos:station:wmo:42044:1,2003-03-02T13:09:00Z,26.1914,-97.0507,0.0,1.452067492,323.6823983,3.38,'11111222,11111222,11111222' 
TABS,ioos:station:wmo:42044:1,2003-03-02T13:39:00Z,26.1914,-97.0507,0.0,1.406022759,5.304886742,3.93,'11111222,11111222,11111222' 
TABS,ioos:station:wmo:42044:1,2003-03-02T14:09:00Z,26.1914,-97.0507,0.0,2.353146829,285.2764381,4.79,'11111222,11111222,11111222' 
TABS,ioos:station:wmo:42044:1,2003-03-02T14:39:00Z,26.1914,-97.0507,0.0,2.097736876,301.9474048,4.71,'11111222,11111222,11111222' 
TABS,ioos:station:wmo:42044:1,2003-03-02T15:09:00Z,26.1914,-97.0507,0.0,2.493932637,273.2180538,4.25,'11111222,11111222,11111222' 
TABS,ioos:station:wmo:42044:1,2003-03-02T15:39:00Z,26.1914,-97.0507,0.0,2.295321328,285.6710548,4.49,'11111222,11111222,11111222' 
TABS,ioos:station:wmo:42044:1,2003-03-02T16:09:00Z,26.1914,-97.0507,0.0,2.859545418,255.6236156,4.72,'11111222,11111222,11111222' 
TABS,ioos:station:wmo:42044:1,2003-03-02T16:39:00Z,26.1914,-97.0507,0.0,2.476953774,258.8261879,4.29,'11111222,11111222,11111222' 
TABS,ioos:station:wmo:42044:1,2003-03-02T17:09:00Z,26.1914,-97.0507,0.0,1.95563289,294.4681446,4.2,'11111222,11111222,11111222' 
TABS,ioos:station:wmo:42044:1,2003-03-02T17:39:00Z,26.1914,-97.0507,0.0,1.141271221,278.0590851,3.44,'11111222,11111222,11111222' 
TABS,ioos:station:wmo:42044:1,2003-03-02T18:09:00Z,26.1914,-97.0507,0.0,1.865073725,258.8708367,3.82,'11111222,11111222,11111222' 
TABS,ioos:station:wmo:42044:1,2003-03-02T18:39:00Z,26.1914,-97.0507,0.0,1.979949494,287.3367211,4.04,'11111222,11111222,11111222' 
TABS,ioos:station:wmo:42044:1,2003-03-02T19:09:00Z,26.1914,-97.0507,0.0,1.847403583,304.6362272,3.79,'11111222,11111222,11111222' 
TABS,ioos:station:wmo:42044:1,2003-03-02T19:39:00Z,26.1914,-97.0507,0.0,2.188355547,303.2542888,4.7,'11111222,11111222,11111222' 
TABS,ioos:station:wmo:42044:1,2003-03-02T20:09:00Z,26.1914,-97.0507,0.0,1.862525168,328.6140457,4.06,'11111222,11111222,11111222' 
TABS,ioos:station:wmo:42044:1,2003-03-02T20:39:00Z,26.1914,-97.0507,0.0,2.966226559,13.84860708,4.87,'11111222,11111222,11111222' 
TABS,ioos:station:wmo:42044:1,2003-03-02T21:09:00Z,26.1914,-97.0507,0.0,2.153369453,11.51842195,4.98,'11111222,11111222,11111222' 
TABS,ioos:station:wmo:42044:1,2003-03-02T21:39:00Z,26.1914,-97.0507,0.0,2.26737734,338.5269037,4.08,'11111222,11111222,11111222' 
TABS,ioos:station:wmo:42044:1,2003-03-02T22:09:00Z,26.1914,-97.0507,0.0,2.411182283,332.0531697,4.05,'11111222,11111222,11111222' 
TABS,ioos:station:wmo:42044:1,2003-03-02T22:39:00Z,26.1914,-97.0507,0.0,2.032953516,311.6100369,4.23,'11111222,11111222,11111222' 
TABS,ioos:station:wmo:42044:1,2003-03-02T23:09:00Z,26.1914,-97.0507,0.0,2.408007475,306.7270485,3.64,'11111222,11111222,11111222' 
TABS,ioos:station:wmo:42044:1,2003-03-02T23:39:00Z,26.1914,-97.0507,0.0,2.083122656,327.148958,3.59,'11111222,11111222,11111222' 
TABS,ioos:station:wmo:42044:1,2003-03-03T00:09:00Z,26.1914,-97.0507,0.0,2.269096737,310.7107515,4.54,'11111222,11111222,11111222' 
TABS,ioos:station:wmo:42044:1,2003-03-03T00:39:00Z,26.1914,-97.0507,0.0,2.340619576,352.3889879,4.09,'11111222,11111222,11111222' 
TABS,ioos:station:wmo:42044:1,2003-03-03T01:09:00Z,26.1914,-97.0507,0.0,2.225061797,3.865241672,4.4,'11111222,11111222,11111222' 
TABS,ioos:station:wmo:42044:1,2003-03-03T01:39:00Z,26.1914,-97.0507,0.0,2.353146829,15.27622764,5.27,'11111222,11111222,11111222' 
TABS,ioos:station:wmo:42044:1,2003-03-03T02:09:00Z,26.1914,-97.0507,0.0,2.131220308,23.79844309,5.7,'11111222,11111222,11111222' 
TABS,ioos:station:wmo:42044:1,2003-03-03T02:39:00Z,26.1914,-97.0507,0.0,2.270550594,358.737975,5.6,'11111222,11111222,11111222' 
TABS,ioos:station:wmo:42044:1,2003-03-03T03:09:00Z,26.1914,-97.0507,0.0,2.020321757,345.9635789,4.68,'11111222,11111222,11111222' 
TABS,ioos:station:wmo:42044:1,2003-03-03T03:39:00Z,26.1914,-97.0507,0.0,1.385388032,337.5072302,4.48,'11111222,11111222,11111222' 
TABS,ioos:station:wmo:42044:1,2003-03-03T04:09:00Z,26.1914,-97.0507,0.0,1.568693724,19.35873845,4.69,'11111222,11111222,11111222' 
TABS,ioos:station:wmo:42044:1,2003-03-03T04:39:00Z,26.1914,-97.0507,0.0,3.04415834,59.39096202,6.68,'11111222,11111222,11111222' 
TABS,ioos:station:wmo:42044:1,2003-03-03T05:09:00Z,26.1914,-97.0507,0.0,2.777372859,62.78877274,6.92,'11111222,11111222,11111222' 
TABS,ioos:station:wmo:42044:1,2003-03-03T05:39:00Z,26.1914,-97.0507,0.0,2.522954617,62.11417952,6.15,'11111222,11111222,11111222' 
TABS,ioos:station:wmo:42044:1,2003-03-03T06:09:00Z,26.1914,-97.0507,0.0,2.466110298,50.75930458,5.6,'11111222,11111222,11111222' 
TABS,ioos:station:wmo:42044:1,2003-03-03T06:39:00Z,26.1914,-97.0507,0.0,3.423010371,61.56284944,7.01,'11111222,11111222,11111222' 
TABS,ioos:station:wmo:42044:1,2003-03-03T07:09:00Z,26.1914,-97.0507,0.0,3.242606976,55.42743454,7.0,'11111222,11111222,11111222' 
TABS,ioos:station:wmo:42044:1,2003-03-03T07:39:00Z,26.1914,-97.0507,0.0,2.878419705,50.78029052,7.17,'11111222,11111222,11111222' 
TABS,ioos:station:wmo:42044:1,2003-03-03T08:09:00Z,26.1914,-97.0507,0.0,2.047486264,50.94653346,5.94,'11111222,11111222,11111222' 
TABS,ioos:station:wmo:42044:1,2003-03-03T08:39:00Z,26.1914,-97.0507,0.0,2.590077219,52.68733903,6.27,'11111222,11111222,11111222' 
TABS,ioos:station:wmo:42044:1,2003-03-03T09:09:00Z,26.1914,-97.0507,0.0,2.201090639,19.09323689,6.3,'11111222,11111222,11111222' 
TABS,ioos:station:wmo:42044:1,2003-03-03T09:39:00Z,26.1914,-97.0507,0.0,2.822516608,35.77336167,6.73,'11111222,11111222,11111222' 
TABS,ioos:station:wmo:42044:1,2003-03-03T10:09:00Z,26.1914,-97.0507,0.0,2.493932637,9.462089622,5.51,'11111222,11111222,11111222' 
TABS,ioos:station:wmo:42044:1,2003-03-03T10:39:00Z,26.1914,-97.0507,0.0,2.330536419,358.7704579,5.7,'11111222,11111222,11111222' 
TABS,ioos:station:wmo:42044:1,2003-03-03T11:09:00Z,26.1914,-97.0507,0.0,1.942472651,16.75549929,5.68,'11111222,11111222,11111222' 
TABS,ioos:station:wmo:42044:1,2003-03-03T11:39:00Z,26.1914,-97.0507,0.0,1.705784277,55.75062616,5.64,'11111222,11111222,11111222' 
TABS,ioos:station:wmo:42044:1,2003-03-03T12:09:00Z,26.1914,-97.0507,0.0,0.447213595,63.43459003,5.69,'11111222,11111222,11111222' 
TABS,ioos:station:wmo:42044:1,2003-03-03T12:39:00Z,26.1914,-97.0507,0.0,1.565183695,347.8283598,5.54,'11111222,11111222,11111222' 
TABS,ioos:station:wmo:42044:1,2003-03-03T13:09:00Z,26.1914,-97.0507,0.0,0.405215992,344.2486527,6.39,'11111222,11111222,11111222' 
TABS,ioos:station:wmo:42044:1,2003-03-03T13:39:00Z,26.1914,-97.0507,0.0,0.606712452,351.4690439,5.16,'11111222,11111222,11111222' 
TABS,ioos:station:wmo:42044:1,2003-03-03T14:09:00Z,26.1914,-97.0507,0.0,0.697710542,297.2995084,4.36,'11111222,11111222,11111222' 
TABS,ioos:station:wmo:42044:1,2003-03-03T14:39:00Z,26.1914,-97.0507,0.0,0.291547595,185.9063378,4.92,'11111222,11111222,11111222' 
TABS,ioos:station:wmo:42044:1,2003-03-03T15:09:00Z,26.1914,-97.0507,0.0,1.171708155,333.6534851,6.02,'11111222,11111222,11111222' 
TABS,ioos:station:wmo:42044:1,2003-03-03T15:39:00Z,26.1914,-97.0507,0.0,1.534959283,301.4117974,6.07,'11111222,11111222,11111222' 
TABS,ioos:station:wmo:42044:1,2003-03-03T16:09:00Z,26.1914,-97.0507,0.0,1.63688729,275.2577969,5.33,'11111222,11111222,11111222' 
TABS,ioos:station:wmo:42044:1,2003-03-03T16:39:00Z,26.1914,-97.0507,0.0,2.018960128,275.3999608,4.7,'11111222,11111222,11111222' 
TABS,ioos:station:wmo:42044:1,2003-03-03T17:09:00Z,26.1914,-97.0507,0.0,0.586941224,293.0703583,4.35,'11111222,11111222,11111222' 
TABS,ioos:station:wmo:42044:1,2003-03-03T17:39:00Z,26.1914,-97.0507,0.0,0.342052628,164.7451274,5.38,'11111222,11111222,11111222' 
TABS,ioos:station:wmo:42044:1,2003-03-03T18:09:00Z,26.1914,-97.0507,0.0,1.20420098,204.0109534,5.21,'11111222,11111222,11111222' 
TABS,ioos:station:wmo:42044:1,2003-03-03T18:39:00Z,26.1914,-97.0507,0.0,1.843908891,266.2686117,6.37,'11111222,11111222,11111222' 
TABS,ioos:station:wmo:42044:1,2003-03-03T19:09:00Z,26.1914,-97.0507,0.0,2.634862425,273.4813759,8.32,'11111222,11111222,11111222' 
TABS,ioos:station:wmo:42044:1,2003-03-03T19:39:00Z,26.1914,-97.0507,0.0,3.767240369,252.8637656,7.32,'11111222,11111222,11111222' 
TABS,ioos:station:wmo:42044:1,2003-03-03T20:09:00Z,26.1914,-97.0507,0.0,5.952142471,273.66039,9.4,'11111222,11111222,11111222' 
TABS,ioos:station:wmo:42044:1,2003-03-03T20:39:00Z,26.1914,-97.0507,0.0,6.705288957,290.5159932,11.86,'11111222,11111222,11111222' 
TABS,ioos:station:wmo:42044:1,2003-03-03T21:09:00Z,26.1914,-97.0507,0.0,9.238062567,307.0806843,12.98,'11111222,11111222,11111222' 
TABS,ioos:station:wmo:42044:1,2003-03-03T21:39:00Z,26.1914,-97.0507,0.0,11.20775624,319.5593921,15.35,'11111222,11111222,11111222' 
TABS,ioos:station:wmo:42044:1,2003-03-03T22:09:00Z,26.1914,-97.0507,0.0,11.25763741,324.1072078,16.63,'11111222,11111222,11111222' 
TABS,ioos:station:wmo:42044:1,2003-03-03T22:39:00Z,26.1914,-97.0507,0.0,12.02640844,330.2372502,17.75,'11111222,11111222,11111222' 
TABS,ioos:station:wmo:42044:1,2003-03-03T23:09:00Z,26.1914,-97.0507,0.0,11.17936045,337.6559469,16.47,'11111222,11111222,11111222' 
TABS,ioos:station:wmo:42044:1,2003-03-03T23:39:00Z,26.1914,-97.0507,0.0,11.26185154,342.3210588,16.08,'11111222,11111222,11111222' 
TABS,ioos:station:wmo:42044:1,2003-03-04T00:09:00Z,26.1914,-97.0507,0.0,10.82446304,345.7196599,16.18,'11111222,11111222,11111222' 
TABS,ioos:station:wmo:42044:1,2003-03-04T00:39:00Z,26.1914,-97.0507,0.0,9.401090362,353.4644326,13.16,'11111222,11111222,11111222' 
TABS,ioos:station:wmo:42044:1,2003-03-04T01:09:00Z,26.1914,-97.0507,0.0,8.623920222,358.2721384,13.19,'11111222,11111222,11111222' 
TABS,ioos:station:wmo:42044:1,2003-03-04T01:39:00Z,26.1914,-97.0507,0.0,7.1107032,0.80558234,11.43,'11111222,11111222,11111222' 
TABS,ioos:station:wmo:42044:1,2003-03-04T02:09:00Z,26.1914,-97.0507,0.0,6.161371601,358.7908077,10.19,'11111222,11111222,11111222' 
TABS,ioos:station:wmo:42044:1,2003-03-04T02:39:00Z,26.1914,-97.0507,0.0,5.588139225,351.0431749,9.48,'11111222,11111222,11111222' 
TABS,ioos:station:wmo:42044:1,2003-03-04T03:09:00Z,26.1914,-97.0507,0.0,4.412708919,351.1351869,8.07,'11111222,11111222,11111222' 
TABS,ioos:station:wmo:42044:1,2003-03-04T03:39:00Z,26.1914,-97.0507,0.0,3.804891588,344.1371683,7.36,'11111222,11111222,11111222' 
TABS,ioos:station:wmo:42044:1,2003-03-04T04:09:00Z,26.1914,-97.0507,0.0,2.640075756,331.4933186,6.55,'11111222,11111222,11111222' 
TABS,ioos:station:wmo:42044:1,2003-03-04T04:39:00Z,26.1914,-97.0507,0.0,3.2381785,322.5283782,6.8,'11111222,11111222,11111222' 
TABS,ioos:station:wmo:42044:1,2003-03-04T05:09:00Z,26.1914,-97.0507,0.0,2.248599564,314.9998948,5.28,'11111222,11111222,11111222' 
TABS,ioos:station:wmo:42044:1,2003-03-04T05:39:00Z,26.1914,-97.0507,0.0,1.802054383,323.5751074,6.11,'11111222,11111222,11111222' 
TABS,ioos:station:wmo:42044:1,2003-03-04T06:09:00Z,26.1914,-97.0507,0.0,1.520690633,316.3321115,5.15,'11111222,11111222,11111222' 
TABS,ioos:station:wmo:42044:1,2003-03-04T06:39:00Z,26.1914,-97.0507,0.0,2.173476478,280.0690392,5.33,'11111222,11111222,11111222' 
TABS,ioos:station:wmo:42044:1,2003-03-04T07:09:00Z,26.1914,-97.0507,0.0,3.307113545,282.3972373,6.38,'11111222,11111222,11111222' 
TABS,ioos:station:wmo:42044:1,2003-03-04T07:39:00Z,26.1914,-97.0507,0.0,3.969445805,250.4238977,7.18,'11111222,11111222,11111222' 
TABS,ioos:station:wmo:42044:1,2003-03-04T08:09:00Z,26.1914,-97.0507,0.0,4.981816938,250.2920672,8.78,'11111222,11111222,11111222' 
TABS,ioos:station:wmo:42044:1,2003-03-04T08:39:00Z,26.1914,-97.0507,0.0,5.47014625,253.3208598,9.84,'11111222,11111222,11111222' 
TABS,ioos:station:wmo:42044:1,2003-03-04T09:09:00Z,26.1914,-97.0507,0.0,5.583153231,260.0990492,10.11,'11111222,11111222,11111222' 
TABS,ioos:station:wmo:42044:1,2003-03-04T09:39:00Z,26.1914,-97.0507,0.0,5.252437529,268.2543873,9.2,'11111222,11111222,11111222' 
TABS,ioos:station:wmo:42044:1,2003-03-04T10:09:00Z,26.1914,-97.0507,0.0,4.540242284,303.8649902,7.15,'11111222,11111222,11111222' 
TABS,ioos:station:wmo:42044:1,2003-03-04T10:39:00Z,26.1914,-97.0507,0.0,5.020926209,299.7306577,8.21,'11111222,11111222,11111222' 
TABS,ioos:station:wmo:42044:1,2003-03-04T11:09:00Z,26.1914,-97.0507,0.0,5.662596578,294.075442,8.25,'11111222,11111222,11111222' 
TABS,ioos:station:wmo:42044:1,2003-03-04T11:39:00Z,26.1914,-97.0507,0.0,5.382062802,307.1465998,8.14,'11111222,11111222,11111222' 
TABS,ioos:station:wmo:42044:1,2003-03-04T12:09:00Z,26.1914,-97.0507,0.0,5.037161899,299.363881,8.35,'11111222,11111222,11111222' 
TABS,ioos:station:wmo:42044:1,2003-03-04T12:39:00Z,26.1914,-97.0507,0.0,5.455135195,288.9331162,9.38,'11111222,11111222,11111222' 
TABS,ioos:station:wmo:42044:1,2003-03-04T13:09:00Z,26.1914,-97.0507,0.0,5.407448567,301.3089439,8.27,'11111222,11111222,11111222' 
TABS,ioos:station:wmo:42044:1,2003-03-04T13:39:00Z,26.1914,-97.0507,0.0,5.12111316,301.4241884,7.96,'11111222,11111222,11111222' 
TABS,ioos:station:wmo:42044:1,2003-03-04T14:09:00Z,26.1914,-97.0507,0.0,5.455730932,304.2434119,8.09,'11111222,11111222,11111222' 
TABS,ioos:station:wmo:42044:1,2003-03-04T14:39:00Z,26.1914,-97.0507,0.0,4.302859514,299.3649384,6.68,'11111222,11111222,11111222' 
TABS,ioos:station:wmo:42044:1,2003-03-04T15:09:00Z,26.1914,-97.0507,0.0,3.269158913,296.3298509,5.71,'11111222,11111222,11111222' 
TABS,ioos:station:wmo:42044:1,2003-03-04T15:39:00Z,26.1914,-97.0507,0.0,3.839635399,289.4730987,7.15,'11111222,11111222,11111222' 
TABS,ioos:station:wmo:42044:1,2003-03-04T16:09:00Z,26.1914,-97.0507,0.0,3.551140662,271.4522546,5.64,'11111222,11111222,11111222' 
TABS,ioos:station:wmo:42044:1,2003-03-04T16:39:00Z,26.1914,-97.0507,0.0,2.56322063,264.1782099,5.63,'11111222,11111222,11111222' 
TABS,ioos:station:wmo:42044:1,2003-03-04T17:09:00Z,26.1914,-97.0507,0.0,2.710295187,269.1543692,5.24,'11111222,11111222,11111222' 
TABS,ioos:station:wmo:42044:1,2003-03-04T17:39:00Z,26.1914,-97.0507,0.0,2.925423046,275.8859741,5.37,'11111222,11111222,11111222' 
TABS,ioos:station:wmo:42044:1,2003-03-04T18:09:00Z,26.1914,-97.0507,0.0,2.74040143,286.3187084,4.88,'11111222,11111222,11111222' 
TABS,ioos:station:wmo:42044:1,2003-03-04T18:39:00Z,26.1914,-97.0507,0.0,2.438237068,278.728276,4.63,'11111222,11111222,11111222' 
TABS,ioos:station:wmo:42044:1,2003-03-04T19:09:00Z,26.1914,-97.0507,0.0,2.403518255,266.8995158,5.07,'11111222,11111222,11111222' 
TABS,ioos:station:wmo:42044:1,2003-03-04T19:39:00Z,26.1914,-97.0507,0.0,2.579922479,262.8750003,4.43,'11111222,11111222,11111222' 
TABS,ioos:station:wmo:42044:1,2003-03-04T20:09:00Z,26.1914,-97.0507,0.0,1.773696705,262.8750003,3.76,'11111222,11111222,11111222' 
TABS,ioos:station:wmo:42044:1,2003-03-04T20:39:00Z,26.1914,-97.0507,0.0,1.483374531,266.1345479,3.7,'11111222,11111222,11111222' 
TABS,ioos:station:wmo:42044:1,2003-03-04T21:09:00Z,26.1914,-97.0507,0.0,1.584550409,274.3432298,4.1,'11111222,11111222,11111222' 
TABS,ioos:station:wmo:42044:1,2003-03-04T21:39:00Z,26.1914,-97.0507,0.0,1.489227988,243.2629525,3.81,'11111222,11111222,11111222' 
TABS,ioos:station:wmo:42044:1,2003-03-04T22:09:00Z,26.1914,-97.0507,0.0,2.202044505,233.4944612,4.25,'11111222,11111222,11111222' 